Waarnemingen

Advertentie
Mijn weer
Tännäs, Zweden (2308): temperatuur & dauwpunt: 21.04.2018 08:00:00 - 27.04.2018 08:00:00 (CEST)Tännäs, Zweden (2308): windsnelheid & windstoten: 21.04.2018 08:00:00 - 27.04.2018 08:00:00 (CEST)Tännäs, Zweden (2308): windrichting: 21.04.2018 08:00:00 - 27.04.2018 08:00:00 (CEST)Tännäs, Zweden (2308): luchtdruk: 21.04.2018 08:00:00 - 27.04.2018 08:00:00 (CEST)Tännäs, Zweden (2308): zicht: 21.04.2018 08:00:00 - 27.04.2018 08:00:00 (CEST)Tännäs, Zweden (2308): neerslag: 21.04.2018 08:00:00 - 27.04.2018 08:00:00 (CEST)
Datum & Tijd tt [°C] td [°C] ff [km/u] ff [kn] fx [km/u] fx [kn] dd ppp [hPa] vv [km] rr [mm]
27.04.2018 08:00:00 1,1 -0,8 1 1 4 2 NNW 1004,0 50 0,0
27.04.2018 07:00:00 0,1 -1,7 1 0 4 2 ZW 1003,7 50 0,0
27.04.2018 06:00:00 -0,7 -2,0 2 1 4 2 NNO 1003,6 50 0,0
27.04.2018 05:00:00 -1,0 -2,1 1 0 7 4 ONO 1003,5 50 0,0
27.04.2018 04:00:00 -0,2 -1,8 3 2 6 4 O 1003,4 50 0,0
27.04.2018 03:00:00 -0,1 -1,7 1 1 4 2 NW 1003,3 50 0,0
27.04.2018 02:00:00 0,2 -1,4 3 1 4 2 O 1003,1 50 0,0
27.04.2018 01:00:00 0,4 -1,5 1 1 5 3 N 1002,9 50 0,0
27.04.2018 00:00:00 0,5 -1,7 2 1 5 3 ONO 1002,8 50 0,0
26.04.2018 23:00:00 0,7 -1,9 1 1 6 3 NNO 1002,6 50 0,0
26.04.2018 22:00:00 0,9 -2,2 1 1 5 3 N 1002,4 50 0,0
26.04.2018 21:00:00 2,2 -2,1 1 0 4 2 N 1002,0 50 0,0
26.04.2018 20:00:00 3,6 -1,8 1 1 8 5 OZO 1001,1 50 0,0
26.04.2018 19:00:00 4,2 -2,7 1 1 16 8 NW 1000,5 50 0,0
26.04.2018 18:00:00 5,2 -3,1 5 3 19 10 W 1000,0 50 0,0
26.04.2018 17:00:00 5,0 -2,1 6 3 21 12 W 1000,1 50 0,0
26.04.2018 16:00:00 5,3 -2,3 8 5 21 11 W 999,8 50 0,0
26.04.2018 15:00:00 5,9 -3,5 4 2 16 9 W 999,3 50 0,0
26.04.2018 14:00:00 5,1 -3,4 5 3 24 13 W 999,3 50 0,0
26.04.2018 13:00:00 4,6 -3,7 9 5 23 12 W 999,2 46 0,0
26.04.2018 12:00:00 4,0 -3,5 6 3 23 12 W 999,4 50 0,0
26.04.2018 11:00:00 3,3 -3,1 8 4 20 11 W 999,3 47 0,0
26.04.2018 10:00:00 3,3 -3,3 6 4 21 11 W 998,8 46 0,0
26.04.2018 09:00:00 2,0 -3,5 4 2 13 7 W 999,1 50 0,0
26.04.2018 08:00:00 0,7 -2,9 3 2 9 5 W 999,1 50 0,0
26.04.2018 07:00:00 -0,5 -3,4 2 1 5 3 Z 999,2 50 0,0
26.04.2018 06:00:00 -1,3 -3,7 1 1 6 3 ZW 999,0 50 0,0
26.04.2018 05:00:00 -1,2 -3,6 1 1 11 6 ZO 999,0 50 0,0
26.04.2018 04:00:00 -0,5 -3,5 4 2 16 8 WNW 998,9 50 0,0
26.04.2018 03:00:00 -0,4 -3,6 8 4 18 10 WNW 999,0 50 0,0
26.04.2018 02:00:00 -0,5 -3,5 6 4 14 7 WNW 999,1 50 0,0
26.04.2018 01:00:00 -1,4 -3,6 1 1 5 3 NW 999,3 50 0,0
26.04.2018 00:00:00 -1,7 -4,0 2 1 12 7 ZZW 999,4 50 0,0
25.04.2018 23:00:00 -0,6 -3,8 3 2 17 9 NNW 999,0 50 0,0
25.04.2018 22:00:00 0,4 -3,9 3 2 14 7 N 998,7 50 0,0
25.04.2018 21:00:00 1,6 -4,3 4 2 14 8 NW 997,9 50 0,0
25.04.2018 20:00:00 2,6 -5,1 6 4 17 9 W 997,3 50 0,0
25.04.2018 19:00:00 3,2 -6,5 8 4 23 12 WNW 996,9 50 0,0
25.04.2018 18:00:00 4,2 -5,0 9 5 28 15 WNW 996,4 50 0,0
25.04.2018 17:00:00 4,6 -5,5 9 5 25 14 WNW 996,0 50 0,0
25.04.2018 16:00:00 5,6 -5,7 7 4 - - W 995,7 41 0,0
25.04.2018 15:00:00 5,1 -7,1 13 7 31 17 WNW 995,7 46 0,0
25.04.2018 14:00:00 4,0 -6,0 12 6 33 18 WNW 996,0 43 0,0
25.04.2018 13:00:00 2,8 -5,8 10 6 29 15 WNW 996,4 47 0,0
25.04.2018 12:00:00 3,1 -6,1 11 6 29 16 WNW 996,1 50 0,0
25.04.2018 11:00:00 3,3 -4,9 14 8 28 15 WNW 995,6 46 0,0
25.04.2018 10:00:00 2,3 -4,9 9 5 22 12 WNW 996,0 50 0,0
25.04.2018 09:00:00 1,8 -4,5 10 5 23 12 W 995,7 50 0,0
25.04.2018 08:00:00 1,3 -2,8 5 3 15 8 WNW 995,7 50 0,0
25.04.2018 07:00:00 0,0 -2,5 4 2 13 7 NW 995,3 50 0,0
25.04.2018 06:00:00 -0,1 -2,8 3 2 11 6 N 995,0 50 0,0
25.04.2018 05:00:00 0,6 -1,8 5 3 9 5 NW 994,8 50 0,0
25.04.2018 04:00:00 1,5 -1,4 3 2 12 7 WNW 994,6 50 0,0
25.04.2018 03:00:00 1,3 -1,4 3 1 8 4 NW 994,4 50 0,0
25.04.2018 02:00:00 1,9 -1,4 7 4 17 9 WNW 994,0 50 0,0
25.04.2018 01:00:00 2,4 -2,7 5 3 18 10 WNW 993,9 50 0,0
25.04.2018 00:00:00 2,9 -2,4 6 3 17 9 W 993,4 50 0,0
24.04.2018 23:00:00 1,5 -1,6 2 1 10 6 NNW 993,6 50 0,0
24.04.2018 22:00:00 2,4 -1,0 3 2 13 7 ZW 993,5 50 0,0
24.04.2018 21:00:00 2,6 -1,2 6 4 21 12 ZW 993,1 50 0,0
24.04.2018 20:00:00 4,1 -1,3 5 3 27 15 ZW 992,4 50 0,0
24.04.2018 19:00:00 5,7 -1,7 8 4 26 14 ZW 991,8 50 0,0
24.04.2018 18:00:00 6,6 -1,6 8 4 30 16 ZW 991,7 49 0,0
24.04.2018 17:00:00 4,9 -1,8 8 4 29 15 WZW 992,3 50 0,0
24.04.2018 16:00:00 7,5 -2,0 11 6 34 18 ZW 991,7 49 0,0
24.04.2018 15:00:00 7,8 -2,3 8 5 27 15 ZW 991,7 48 0,0
24.04.2018 14:00:00 8,1 -1,7 11 6 31 17 ZZW 991,8 50 0,0
24.04.2018 13:00:00 8,4 -2,6 8 5 25 14 ZZW 992,0 45 0,0
24.04.2018 12:00:00 6,1 -3,0 5 3 17 9 WZW 993,1 50 0,0
24.04.2018 11:00:00 5,3 -1,4 4 2 14 7 WZW 993,6 50 0,0
24.04.2018 10:00:00 4,3 -1,1 5 3 21 11 W 993,9 50 0,0
24.04.2018 09:00:00 4,4 -0,8 7 4 17 9 W 993,5 50 0,0
24.04.2018 08:00:00 2,0 -0,7 5 3 13 7 WNW 994,4 50 0,0
24.04.2018 07:00:00 1,8 -0,6 4 2 13 7 ZW 994,2 50 0,0
24.04.2018 06:00:00 0,9 -0,4 3 2 14 8 W 994,6 50 0,0
24.04.2018 05:00:00 0,2 -0,5 5 3 14 7 NW 994,8 50 0,0
24.04.2018 04:00:00 0,7 -0,2 6 3 21 11 NW 994,8 50 0,0
24.04.2018 03:00:00 0,8 0,1 7 4 21 11 NW 994,9 50 0,0
24.04.2018 02:00:00 0,8 0,2 3 2 12 7 WNW 995,0 50 0,0
24.04.2018 01:00:00 0,9 0,3 3 2 7 4 WNW 995,4 50 0,0
24.04.2018 00:00:00 0,7 0,3 1 1 7 4 Z 995,6 45 0,0
23.04.2018 23:00:00 0,6 0,2 4 2 9 5 Z 996,2 50 0,0
23.04.2018 22:00:00 0,7 0,1 2 1 13 7 Z 996,6 50 0,0
23.04.2018 21:00:00 0,8 0,1 3 2 12 6 Z 997,2 50 0,0
23.04.2018 20:00:00 1,0 0,3 4 2 19 10 ZZO 997,5 50 0,0
23.04.2018 19:00:00 1,4 0,7 6 3 16 9 Z 998,1 50 0,0
23.04.2018 18:00:00 1,8 0,8 4 2 19 10 ZZO 998,8 50 0,1
23.04.2018 17:00:00 1,9 0,9 3 2 15 8 ZO 999,8 32 0,5
23.04.2018 16:00:00 1,5 0,5 8 4 27 15 Z 1000,7 10 0,3
23.04.2018 15:00:00 3,8 -0,2 10 5 31 17 ZZO 1000,4 36 0,0
23.04.2018 14:00:00 4,7 0,5 7 4 23 13 ZZO 1000,3 50 0,0
23.04.2018 13:00:00 3,6 0,1 8 4 25 13 ZZO 1001,8 40 0,0
23.04.2018 12:00:00 3,7 0,2 5 3 16 9 ZZO 1002,5 50 0,0
23.04.2018 11:00:00 2,7 -0,4 6 4 26 14 ZZO 1003,2 50 0,1
23.04.2018 10:00:00 3,1 -0,9 6 3 19 10 Z 1003,6 45 0,0
23.04.2018 09:00:00 4,0 -1,4 6 3 21 11 ZZO 1003,8 50 0,0
23.04.2018 08:00:00 3,6 -0,8 5 3 18 10 ZZO 1004,7 50 0,0
23.04.2018 07:00:00 3,1 -0,9 4 2 15 8 ZO 1005,4 50 0,0
23.04.2018 06:00:00 3,1 -0,7 6 3 21 11 Z 1006,0 50 0,0
23.04.2018 05:00:00 2,3 -0,6 5 3 16 9 Z 1007,2 50 0,0
23.04.2018 04:00:00 2,3 -0,3 6 3 17 9 ZZO 1007,9 33 0,1
23.04.2018 03:00:00 1,8 -0,1 5 3 19 10 Z 1009,1 17 0,2
23.04.2018 02:00:00 3,2 -1,2 6 4 22 12 ZZW 1009,4 47 0,0
23.04.2018 01:00:00 3,3 -3,1 6 3 21 11 Z 1010,0 50 0,0
23.04.2018 00:00:00 3,6 -3,2 8 4 21 11 Z 1010,3 50 0,0
22.04.2018 23:00:00 3,0 -3,6 7 4 22 12 Z 1010,9 50 0,0
22.04.2018 22:00:00 3,3 -3,9 6 3 18 10 Z 1011,5 50 0,0
22.04.2018 21:00:00 3,7 -4,0 5 3 14 7 Z 1011,9 50 0,0
22.04.2018 20:00:00 5,1 -4,2 4 2 21 11 Z 1011,7 50 0,0
22.04.2018 19:00:00 5,6 -4,3 6 4 22 12 Z 1012,0 50 0,0
22.04.2018 18:00:00 6,5 -4,0 8 5 19 10 Z 1012,1 37 0,0
22.04.2018 17:00:00 7,5 -3,7 7 4 21 11 Z 1012,3 47 0,0
22.04.2018 16:00:00 7,4 -3,5 9 5 20 11 ZZW 1013,0 46 0,0
22.04.2018 15:00:00 7,2 -3,7 7 4 18 10 ZZW 1013,5 47 0,0
22.04.2018 14:00:00 7,8 -3,4 6 3 16 8 Z 1013,6 44 0,0
22.04.2018 13:00:00 7,5 -2,8 5 3 14 8 Z 1014,1 42 0,0
22.04.2018 12:00:00 6,1 -2,5 5 3 14 7 ZW 1015,0 41 0,0
22.04.2018 11:00:00 4,6 -2,3 4 2 13 7 ZW 1015,8 42 0,0
22.04.2018 10:00:00 3,5 -2,3 3 2 21 11 W 1016,3 50 0,0
22.04.2018 09:00:00 2,2 -2,1 5 3 16 9 WNW 1016,7 50 0,0
22.04.2018 08:00:00 1,5 -2,4 3 2 15 8 ZZW 1016,9 50 0,0
22.04.2018 07:00:00 0,6 -2,3 5 3 19 10 W 1016,9 50 0,0
22.04.2018 06:00:00 0,6 -2,3 6 3 21 11 WNW 1016,3 50 0,0
22.04.2018 05:00:00 0,4 -2,1 8 4 19 11 WNW 1016,8 50 0,0
22.04.2018 04:00:00 0,5 -2,1 6 4 19 11 NW 1016,6 50 0,0
22.04.2018 03:00:00 0,7 -2,4 9 5 37 20 WNW 1015,6 50 0,0
22.04.2018 02:00:00 0,6 -2,3 9 5 28 15 WNW 1015,4 50 0,0
22.04.2018 01:00:00 1,0 -2,4 6 3 30 16 W 1015,7 50 0,0
22.04.2018 00:00:00 0,6 -1,8 7 4 45 24 W 1014,9 47 0,0
21.04.2018 23:00:00 0,9 -2,3 11 6 38 21 WNW 1014,2 50 0,0
21.04.2018 22:00:00 1,4 -2,4 10 5 47 26 WNW 1014,4 50 0,0
21.04.2018 21:00:00 1,5 -1,9 7 4 35 19 WNW 1014,0 50 0,0
21.04.2018 20:00:00 2,0 -2,0 14 8 45 25 WNW 1013,1 50 0,0
21.04.2018 19:00:00 2,2 -1,4 18 10 51 28 WNW 1012,8 50 0,0
21.04.2018 18:00:00 2,7 -1,3 16 9 47 25 WNW 1012,4 50 0,0
21.04.2018 17:00:00 3,1 -1,6 18 10 50 27 WNW 1012,0 50 0,0
21.04.2018 16:00:00 3,9 -2,1 21 12 46 25 WNW 1010,9 48 0,0
21.04.2018 15:00:00 3,8 -1,4 20 11 52 28 WNW 1010,6 33 0,0
21.04.2018 14:00:00 3,8 -1,4 22 12 54 29 WNW 1010,0 50 0,0
21.04.2018 13:00:00 3,7 -1,3 17 9 59 32 WNW 1010,0 48 0,0
21.04.2018 12:00:00 4,7 -1,5 23 12 55 30 WNW 1008,2 40 0,0
21.04.2018 11:00:00 4,2 -1,6 23 12 58 31 WNW 1007,8 39 0,0
21.04.2018 10:00:00 3,3 -1,5 22 12 57 31 WNW 1007,3 50 0,0
21.04.2018 09:00:00 3,0 -0,6 12 6 37 20 WNW 1007,3 50 0,0
21.04.2018 08:00:00 2,0 -0,4 9 5 32 17 WNW 1007,6 49 0,0

tt = temperatuur
td = dauwpunt
ff = windsnelheid
fx = windstoten
dd = windrichting
ppp = luchtdruk
vv = zicht
rr = neerslag

Weerstations in de omgeving